[[{"header":{"parameterUnit":"m.s-1","parameterCategory":1,"la1":30.2991,"la2":30.254,"lo1":-89.0895,"lo2":-89.0444,"dy":0.0017,"dx":0.0017,"nx":28,"ny":28,"refTime":"2024-08-12T09:00:00:Z","depth":0,"parameterNumber":2,"parameterNumberName":"U-component_of_WINDS"},"data":[0,0,0,0,0,0,0,0,0,0,0,0,0,0,0,0,0,0,0,0,0,0,0,0,0,0,0,0,0,0,0,0,0,0,0,0,0,0,0,0,0,0,0,0,0,0,0,0,0,0,0,0,0,0,0,0,0,0,0.755,0.755,0,0.7591,0.7592,0.7592,0.7636,0.7637,0.7637,0.7638,0.7679,0.768,0.768,0,0,0,0,0,0,0,0,0,0,0,0,0,0.751,0.751,0.755,0.755,0.7551,0.7591,0.7592,0.7592,0.7636,0.7637,0.7637,0.7638,0.7679,0.768,0.768,0,0,0,0,0,0,0,0,0,0,0,0,0,0.7537,0.751,0.755,0.7577,0.758,0.7591,0.7592,0.7592,0.7636,0.7637,0.7638,0.7638,0.7679,0.7679,0.768,0.7666,0,0,0.7683,0.7683,0,0,0,0,0,0,0,0,0.7535,0.7538,0.7573,0.7576,0.7579,0.7609,0.7593,0.7617,0.7635,0.7615,0.7638,0.7639,0.7655,0.7658,0.7663,0.7668,0.767,0.7683,0.7683,0.7683,0.7684,0,0,0,0,0,0,0,0.7533,0.7537,0.7566,0.7573,0.7577,0.7588,0.7593,0.7597,0.7629,0.7617,0.762,0.7624,0.7657,0.7663,0.7665,0.7671,0.7683,0.7683,0.7684,0.7684,0.7669,0.7668,0,0,0,0,0,0,0.7527,0.7535,0.7565,0.7567,0.7559,0.7588,0.7594,0.7599,0.7629,0.7635,0.7623,0.7626,0.7661,0.7664,0.7666,0.7653,0.7683,0.7684,0.7685,0.7669,0.7668,0.7667,0,0,0,0,0,0,0.7526,0.7529,0.7563,0.7552,0.7557,0.7588,0.7593,0.7599,0.7605,0.7634,0.764,0.7623,0.7662,0.7665,0.7667,0.7655,0.7685,0.7685,0.7671,0.7669,0.7668,0.7626,0,0,0,0,0,0,0.7525,0.7529,0.7523,0.7552,0.7558,0.7562,0.7592,0.7599,0.7606,0.761,0.7636,0.7641,0.7663,0.7665,0.7667,0.7657,0.7686,0.7672,0.767,0.7668,0.7629,0.7624,0.7619,0,0,0,0,0,0.7523,0.7509,0.7523,0.7526,0.7551,0.7561,0.7565,0.759,0.7605,0.76,0.762,0.764,0.7657,0.7665,0.7668,0.7657,0.7672,0.767,0.7668,0.7631,0.7625,0.7619,0,0,0,0,0,0,0.7478,0.7513,0.7529,0.7523,0.7539,0.7569,0.7563,0.7583,0.7594,0.7597,0.7628,0.7634,0.7632,0.7645,0.7654,0.7647,0.7668,0.7666,0.7638,0.7632,0.7628,0.7624,0.7687,0,0,0,0,0,0.7467,0.7472,0.7503,0.7495,0.7503,0.7532,0.7537,0.7555,0.7573,0.7579,0.7599,0.7615,0.7624,0.7629,0.7639,0.7631,0.7638,0.7626,0.7621,0.7617,0.7615,0.7614,0.7609,0.7661,0.7661,0.7661,0,0,0.7445,0.7465,0.7466,0.7487,0.7501,0.7506,0.7537,0.754,0.7544,0.758,0.7582,0.7598,0.7618,0.7615,0.7615,0.7626,0.7603,0.7615,0.7611,0.7611,0.7611,0.7606,0.7602,0.766,0.766,0.766,0,0,0.7408,0.7423,0.7419,0.7434,0.7455,0.7475,0.7474,0.7502,0.7513,0.7517,0.7544,0.755,0.7564,0.7578,0.7587,0.7558,0.7578,0.756,0.7535,0.7534,0.7529,0.7526,0.7516,0.7512,0.7558,0.7558,0.7558,0,0.7377,0.7386,0.7415,0.7417,0.7426,0.746,0.7457,0.7469,0.7493,0.7498,0.7511,0.7531,0.7547,0.7549,0.7542,0.7548,0.7548,0.7557,0.7528,0.7525,0.7522,0.7513,0.7509,0.7556,0.7556,0.7557,0.7557,0,0.7348,0.7353,0.7348,0.7371,0.7379,0.7379,0.7408,0.7413,0.7432,0.7451,0.7455,0.7476,0.7491,0.7493,0.7511,0.7498,0.7505,0.7522,0.7543,0.7514,0.7506,0.7503,0.7553,0.7554,0.7554,0.7555,0,0,0.728,0.7322,0.7319,0.7331,0.7359,0.7364,0.7366,0.7382,0.7386,0.7402,0.7405,0.7418,0.7435,0.7445,0.7465,0.7463,0.744,0.7481,0.7482,0.7473,0.7429,0.7415,0.7411,0.7454,0.7454,0.7453,0.7427,0,0.7248,0.7253,0.728,0.7278,0.7284,0.7318,0.732,0.7337,0.7356,0.7364,0.7385,0.7393,0.7415,0.7422,0.7422,0.7443,0.7432,0.7445,0.7458,0.7458,0.7451,0.7407,0.7392,0.7366,0.7424,0.7424,0.7424,0,0.7209,0.7224,0.7222,0.7252,0.7256,0.7257,0.7275,0.7283,0.7304,0.7318,0.733,0.7354,0.7359,0.738,0.7388,0.7396,0.7403,0.7415,0.7414,0.7416,0.7438,0.7407,0.7358,0.7354,0.7419,0.7419,0.742,0,0.7161,0.718,0.7182,0.7191,0.7226,0.7226,0.7241,0.7264,0.7272,0.7288,0.7294,0.731,0.7319,0.7331,0.7359,0.7371,0.7364,0.7387,0.7376,0.7375,0.7372,0.7371,0.7323,0.7377,0.7377,0.7377,0.7377,0,0.7121,0.7119,0.7161,0.7162,0.7161,0.7194,0.7192,0.721,0.723,0.7236,0.7267,0.7271,0.7308,0.7317,0.7339,0.7343,0.7346,0.7358,0.7363,0.7355,0.7353,0.7359,0.7361,0.7376,0.7376,0.7376,0.7376,0,0.7066,0.7094,0.7099,0.7132,0.7141,0.7138,0.7167,0.717,0.7192,0.7199,0.7202,0.7235,0.7248,0.7277,0.7298,0.7312,0.7311,0.7321,0.7303,0.7307,0.7294,0.7295,0.7248,0.7244,0.73,0.7299,0.7299,0,0.7038,0.7037,0.7071,0.7078,0.7091,0.7101,0.711,0.7143,0.7152,0.7178,0.7178,0.7193,0.7207,0.7226,0.7253,0.7269,0.728,0.7263,0.7282,0.7274,0.728,0.728,0.728,0.7257,0.7257,0.7256,0.7256,0,0.6986,0.7001,0.7013,0.7031,0.7042,0.7057,0.7074,0.7078,0.7115,0.7124,0.7138,0.7149,0.7171,0.7186,0.7207,0.7223,0.7245,0.725,0.7248,0.7239,0.7228,0.7234,0.7291,0.725,0.7251,0.7251,0.7251,0.7251,0.6944,0.6946,0.697,0.6984,0.7001,0.7017,0.7021,0.7044,0.7056,0.7077,0.7096,0.7108,0.7132,0.7163,0.7178,0.7188,0.72,0.7197,0.7196,0.7195,0.7192,0.7227,0.7192,0.7192,0.7193,0.7193,0.7193,0,0.6894,0.6912,0.6924,0.6948,0.6959,0.6981,0.7002,0.7009,0.702,0.7041,0.7055,0.7072,0.7088,0.7116,0.7134,0.7138,0.7149,0.7142,0.7141,0.7145,0.718,0.718,0.7132,0.7132,0.7132,0.7132,0.7132,0.7132,0.6869,0.6873,0.6891,0.6905,0.6924,0.6936,0.6946,0.6962,0.6979,0.6997,0.701,0.7029,0.7053,0.7074,0.709,0.7098,0.7104,0.7093,0.7104,0.7136,0.7142,0.7148,0.7147,0.7094,0.7094,0.7068,0.7068,0.7068]},{"header":{"parameterUnit":"m.s-1","parameterCategory":1,"la1":30.2991,"la2":30.254,"lo1":-89.0895,"lo2":-89.0444,"dy":0.0017,"dx":0.0017,"nx":28,"ny":28,"refTime":"2024-08-12T09:00:00:Z","depth":0,"parameterNumber":3,"parameterNumberName":"V-component_of_WINDS"},"data":[0,0,0,0,0,0,0,0,0,0,0,0,0,0,0,0,0,0,0,0,0,0,0,0,0,0,0,0,0,0,0,0,0,0,0,0,0,0,0,0,0,0,0,0,0,0,0,0,0,0,0,0,0,0,0,0,0,0,-2.4016,-2.4017,0,-2.4105,-2.4106,-2.4107,-2.4131,-2.413,-2.413,-2.4129,-2.4217,-2.422,-2.4222,0,0,0,0,0,0,0,0,0,0,0,0,0,-2.3864,-2.3867,-2.4016,-2.4017,-2.4018,-2.4105,-2.4106,-2.4107,-2.4131,-2.413,-2.4129,-2.4129,-2.4216,-2.4219,-2.4223,0,0,0,0,0,0,0,0,0,0,0,0,0,-2.3939,-2.3868,-2.4016,-2.404,-2.4043,-2.4105,-2.4106,-2.4108,-2.4131,-2.413,-2.4129,-2.4129,-2.4215,-2.4219,-2.4223,-2.4265,0,0,-2.4236,-2.4238,0,0,0,0,0,0,0,0,-2.3935,-2.3945,-2.4036,-2.4039,-2.4042,-2.4106,-2.4085,-2.416,-2.4131,-2.4098,-2.4129,-2.4128,-2.418,-2.4187,-2.4206,-2.4269,-2.4273,-2.4236,-2.4239,-2.4241,-2.4242,0,0,0,0,0,0,0,-2.393,-2.3941,-2.4051,-2.4037,-2.4041,-2.4046,-2.4056,-2.4099,-2.4142,-2.41,-2.4102,-2.4113,-2.4182,-2.4202,-2.4208,-2.4274,-2.4236,-2.424,-2.4243,-2.4244,-2.4379,-2.438,0,0,0,0,0,0,-2.3921,-2.3937,-2.4048,-2.4054,-2.3986,-2.405,-2.4061,-2.4086,-2.4142,-2.415,-2.4113,-2.4114,-2.4195,-2.4203,-2.4211,-2.4266,-2.4241,-2.4245,-2.4247,-2.4378,-2.4379,-2.438,0,0,0,0,0,0,-2.3917,-2.3931,-2.4045,-2.3996,-2.4011,-2.4053,-2.4082,-2.4088,-2.4108,-2.4152,-2.4159,-2.4126,-2.4194,-2.4205,-2.4252,-2.4269,-2.4247,-2.4251,-2.4377,-2.4378,-2.438,-2.4374,0,0,0,0,0,0,-2.3913,-2.3929,-2.3946,-2.3996,-2.4013,-2.4085,-2.4083,-2.4091,-2.4116,-2.4117,-2.4165,-2.4172,-2.4195,-2.4246,-2.4257,-2.4274,-2.4254,-2.4376,-2.4378,-2.4379,-2.4373,-2.4375,-2.4377,0,0,0,0,0,-2.3907,-2.3939,-2.3946,-2.396,-2.4035,-2.4086,-2.4096,-2.4122,-2.4117,-2.4134,-2.4162,-2.4171,-2.4265,-2.425,-2.4263,-2.4282,-2.4375,-2.4377,-2.4379,-2.4372,-2.4375,-2.4377,0,0,0,0,0,0,-2.3888,-2.3946,-2.3955,-2.4004,-2.404,-2.409,-2.4112,-2.4123,-2.416,-2.416,-2.4189,-2.42,-2.4246,-2.4268,-2.4251,-2.4327,-2.432,-2.4325,-2.431,-2.4313,-2.4315,-2.4309,-2.4257,0,0,0,0,0,-2.389,-2.3927,-2.3975,-2.4014,-2.4032,-2.4069,-2.4092,-2.4109,-2.4147,-2.4162,-2.4193,-2.4229,-2.4267,-2.4291,-2.4328,-2.4376,-2.4388,-2.4396,-2.4398,-2.4399,-2.4403,-2.4432,-2.4437,-2.4388,-2.4388,-2.4388,0,0,-2.3893,-2.3929,-2.395,-2.4011,-2.4041,-2.4078,-2.4081,-2.412,-2.4148,-2.4167,-2.4215,-2.4239,-2.4281,-2.4329,-2.4352,-2.435,-2.442,-2.4402,-2.4403,-2.4407,-2.4435,-2.444,-2.4444,-2.439,-2.4389,-2.4389,0,0,-2.3918,-2.3949,-2.3986,-2.4017,-2.4063,-2.4088,-2.4096,-2.4145,-2.4163,-2.4211,-2.4227,-2.426,-2.4324,-2.4354,-2.4378,-2.4418,-2.4427,-2.4429,-2.444,-2.4467,-2.4471,-2.4475,-2.449,-2.4495,-2.4432,-2.4432,-2.4432,0,-2.3916,-2.3974,-2.4003,-2.4042,-2.4069,-2.409,-2.4128,-2.4155,-2.421,-2.4228,-2.4225,-2.4308,-2.4338,-2.4394,-2.4404,-2.4422,-2.4434,-2.4423,-2.4469,-2.4473,-2.4476,-2.4491,-2.4497,-2.4432,-2.4432,-2.4432,-2.4432,0,-2.397,-2.401,-2.4034,-2.409,-2.4119,-2.4157,-2.4191,-2.4217,-2.4232,-2.4258,-2.4307,-2.4344,-2.439,-2.4404,-2.4418,-2.4464,-2.4461,-2.4463,-2.4457,-2.448,-2.4495,-2.4501,-2.4432,-2.4432,-2.4432,-2.4432,0,0,-2.3985,-2.4057,-2.4066,-2.4092,-2.4145,-2.4177,-2.4216,-2.4263,-2.4285,-2.4323,-2.4357,-2.4412,-2.4415,-2.4442,-2.446,-2.4484,-2.4515,-2.4484,-2.4485,-2.4489,-2.4569,-2.4568,-2.4574,-2.4522,-2.4523,-2.4524,-2.4566,0,-2.4018,-2.409,-2.4119,-2.4178,-2.4216,-2.4237,-2.4272,-2.4308,-2.4333,-2.4369,-2.4396,-2.4435,-2.4435,-2.4452,-2.4477,-2.4506,-2.4532,-2.4504,-2.4554,-2.4556,-2.4544,-2.4582,-2.458,-2.4618,-2.4572,-2.4573,-2.4574,0,-2.4066,-2.4107,-2.417,-2.4221,-2.4238,-2.4269,-2.4315,-2.4349,-2.4391,-2.4407,-2.4439,-2.4456,-2.4498,-2.4489,-2.4548,-2.4529,-2.4551,-2.4569,-2.4571,-2.4577,-2.4566,-2.459,-2.463,-2.4636,-2.4583,-2.4582,-2.4581,0,-2.4072,-2.4142,-2.419,-2.4211,-2.4272,-2.4293,-2.4319,-2.436,-2.4387,-2.4428,-2.4446,-2.4489,-2.4513,-2.4547,-2.4575,-2.4566,-2.4633,-2.4626,-2.4648,-2.4647,-2.4661,-2.466,-2.4706,-2.4674,-2.4674,-2.4674,-2.4674,0,-2.4106,-2.4144,-2.4194,-2.4223,-2.4267,-2.4299,-2.4341,-2.4369,-2.4406,-2.4441,-2.4461,-2.4493,-2.4529,-2.4566,-2.4588,-2.4635,-2.4645,-2.466,-2.4665,-2.4659,-2.4657,-2.4674,-2.4672,-2.4675,-2.4675,-2.4675,-2.4674,0,-2.412,-2.4155,-2.4208,-2.4262,-2.4277,-2.4307,-2.4352,-2.4382,-2.4408,-2.4453,-2.4465,-2.4506,-2.4551,-2.4583,-2.464,-2.4655,-2.4706,-2.471,-2.4692,-2.4695,-2.4716,-2.4714,-2.4776,-2.4786,-2.4745,-2.4746,-2.4746,0,-2.414,-2.4171,-2.4228,-2.4254,-2.4281,-2.4321,-2.435,-2.4383,-2.4412,-2.4463,-2.4487,-2.4533,-2.4572,-2.4643,-2.4678,-2.4722,-2.4729,-2.4747,-2.4735,-2.4728,-2.4731,-2.4729,-2.4733,-2.4749,-2.4749,-2.475,-2.475,0,-2.4173,-2.4189,-2.423,-2.4278,-2.4312,-2.435,-2.4389,-2.4408,-2.4448,-2.448,-2.4527,-2.4557,-2.4617,-2.4663,-2.4711,-2.4737,-2.4751,-2.4754,-2.4761,-2.4755,-2.4743,-2.4751,-2.4698,-2.4752,-2.4752,-2.4752,-2.4751,-2.4751,-2.4191,-2.422,-2.4266,-2.4312,-2.4345,-2.4381,-2.4412,-2.4444,-2.4484,-2.4537,-2.4553,-2.4602,-2.4645,-2.4712,-2.4739,-2.4777,-2.4777,-2.4787,-2.479,-2.4792,-2.4793,-2.4737,-2.4786,-2.4786,-2.4786,-2.4786,-2.4786,0,-2.4226,-2.4257,-2.4299,-2.4354,-2.439,-2.4401,-2.4445,-2.4474,-2.4518,-2.4557,-2.4596,-2.4651,-2.4697,-2.4736,-2.4783,-2.4807,-2.4814,-2.4818,-2.4817,-2.4823,-2.479,-2.478,-2.4812,-2.4812,-2.4812,-2.4812,-2.4812,-2.4812,-2.4248,-2.4299,-2.4321,-2.4388,-2.4419,-2.4468,-2.4493,-2.4527,-2.4559,-2.462,-2.4659,-2.4685,-2.4725,-2.4775,-2.4818,-2.4828,-2.4845,-2.4848,-2.486,-2.4828,-2.4825,-2.4822,-2.4813,-2.4851,-2.4851,-2.489,-2.489,-2.489]}]]